Home   Weather   Pasadena   Past weeks
Flag for USA

Past Weather in Pasadena, California, USA — Yesterday and Last 2 Weeks

Now
85 °F

Sunny.


Feels Like: 82 °F
Forecast: 88 / 67 °F
Wind: 5 mph from South

Location: Bob Hope Airport

Current Time: Oct 23, 2019 at 7:21:58 pm

Latest Report: Oct 23, 2019 at 5:53 pm


Visibility: 10 mi

Pressure: 29.79 "Hg

Humidity: 21%

Dew Point: 41 °F

Location of PasadenaLocation

Past Weather in Pasadena — Graph

°F

Pasadena Temperature Yesterday

Maximum temperature yesterday: 94 °F (at 1:53 pm)
Minimum temperature yesterday: 61 °F (at 5:53 am)
Average temperature yesterday: 77 °F

High & Low Weather Summary for the Past Weeks

 TemperatureHumidityPressure
High94 °F (Oct 22, 1:53 pm)87% (Oct 9, 12:53 am)30.06 "Hg (Oct 9, 12:53 am)
Low53 °F (Oct 13, 6:53 am)2% (Oct 10, 5:53 pm)29.71 "Hg (Oct 17, 3:53 pm)
Average70 °F40%29.87 "Hg
* Reported Oct 8 5:53 pm — Oct 23 5:53 pm, Pasadena. Weather by CustomWeather, © 2019

Note: Actual official high and low records may vary slightly from our data, if they occured in-between our weather recording intervals... More about our weather records

Advertising

Pasadena Weather History for the Previous 24 Hours

Scroll right to see more
 ConditionsComfort  
Time TempWeatherWind HumidityBarometerVisibility
5:53 pm
Wed, Oct 23
85 °FSunny.5 mph21%29.79 "Hg10 mi
4:53 pm90 °FSunny.7 mph17%29.79 "Hg10 mi
3:53 pm92 °FSunny.6 mph12%29.80 "Hg10 mi
2:53 pm91 °FSunny.7 mph12%29.80 "Hg10 mi
1:53 pm92 °FSunny.6 mph12%29.82 "Hg10 mi
12:53 pm88 °FSunny.No wind13%29.85 "Hg10 mi
11:53 am86 °FSunny.5 mph14%29.87 "Hg10 mi
10:53 am82 °FSunny.5 mph16%29.89 "Hg10 mi
9:53 am77 °FSunny.No wind24%29.90 "Hg10 mi
8:53 am69 °FSunny.No wind31%29.90 "Hg10 mi
7:53 am64 °FSunny.No wind33%29.88 "Hg10 mi
6:53 am61 °FClear.No wind35%29.88 "Hg10 mi
5:53 am61 °FClear.No wind36%29.88 "Hg10 mi
4:53 am62 °FClear.No wind35%29.87 "Hg10 mi
3:53 am63 °FClear.3 mph34%29.88 "Hg10 mi
2:53 am66 °FClear.No wind29%29.90 "Hg10 mi
1:53 am66 °FClear.5 mph28%29.90 "Hg10 mi
12:53 am67 °FClear.No wind29%29.91 "Hg10 mi
11:53 pm
Tue, Oct 22
68 °FClear.3 mph32%29.93 "Hg10 mi
10:53 pm73 °FClear.3 mph28%29.93 "Hg10 mi
9:53 pm75 °FClear.5 mph22%29.93 "Hg10 mi
8:53 pm76 °FClear.9 mph23%29.93 "Hg10 mi
7:53 pm80 °FClear.No wind20%29.94 "Hg10 mi
Weather by CustomWeather, © 2019

See weather overview